When you browse on this site, cookies collect data to enhance your experience and personalize the content and advertising you see.
Visit our Privacy Policy to learn more. By continuing to use the site, you agree to this use of cookies and data.
  • In Spain
  • List of Countries
  • For 7 days
  • Water Temperature
  • Weather Map
  • Weather Widgets
  • user-avatar
    Login

    Hourly Weather Lautaro

    Today, 19 January, Sunday

    Time Temperature Precipitation Wind Pressure Humidity
    00:00 +11°C° 0 mm 1 mps 735 mmHg 88%
    01:00 +10°C° 0 mm 1 mps 735 mmHg 90%
    02:00 +10°C° 0 mm 1 mps 735 mmHg 89%
    03:00 +9°C° 0 mm 1 mps 735 mmHg 88%
    04:00 +9°C° 0 mm 1 mps 735 mmHg 87%
    05:00 +10°C° 0 mm 1 mps 735 mmHg 77%
    06:00 +12°C° 0 mm 1 mps 736 mmHg 67%
    07:00 +14°C° 0 mm 2 mps 736 mmHg 57%
    08:00 +17°C° 0 mm 2 mps 736 mmHg 50%
    09:00 +20°C° 0 mm 2 mps 736 mmHg 44%
    10:00 +24°C° 0 mm 3 mps 737 mmHg 37%
    11:00 +26°C° 0 mm 3 mps 736 mmHg 32%
    12:00 +28°C° 0 mm 3 mps 736 mmHg 27%
    13:00 +30°C° 0 mm 4 mps 736 mmHg 22%
    14:00 +30°C° 0 mm 4 mps 736 mmHg 23%
    15:00 +29°C° 0 mm 4 mps 736 mmHg 25%
    16:00 +29°C° 0 mm 4 mps 736 mmHg 27%
    17:00 +25°C° 0 mm 3 mps 737 mmHg 37%
    18:00 +21°C° 0 mm 3 mps 737 mmHg 47%
    19:00 +18°C° 0 mm 2 mps 737 mmHg 58%
    20:00 +15°C° 0 mm 2 mps 737 mmHg 68%
    21:00 +13°C° 0 mm 1 mps 738 mmHg 78%
    22:00 +11°C° 0 mm 1 mps 738 mmHg 88%
    23:00 +11°C° 0 mm 1 mps 738 mmHg 89%

    Tomorrow, 20 January, Monday

    Time Temperature Precipitation Wind Pressure Humidity
    00:00 +10°C° 0 mm 1 mps 737 mmHg 89%
    01:00 +9°C° 0 mm 1 mps 737 mmHg 90%
    02:00 +9°C° 0 mm 1 mps 737 mmHg 90%
    03:00 +8°C° 0 mm 1 mps 737 mmHg 90%
    04:00 +8°C° 0 mm 1 mps 737 mmHg 91%
    05:00 +10°C° 0 mm 1 mps 737 mmHg 82%
    06:00 +12°C° 0 mm 1 mps 737 mmHg 73%
    07:00 +13°C° 0 mm 1 mps 737 mmHg 64%
    08:00 +16°C° 0 mm 2 mps 737 mmHg 55%
    09:00 +20°C° 0 mm 2 mps 737 mmHg 46%
    10:00 +24°C° 0 mm 3 mps 737 mmHg 37%
    11:00 +26°C° 0 mm 3 mps 737 mmHg 33%
    12:00 +28°C° 0 mm 3 mps 737 mmHg 29%
    13:00 +30°C° 0 mm 4 mps 737 mmHg 25%
    14:00 +29°C° 0 mm 4 mps 737 mmHg 28%
    15:00 +29°C° 0 mm 4 mps 737 mmHg 32%
    16:00 +28°C° 0 mm 5 mps 736 mmHg 35%
    17:00 +25°C° 0 mm 4 mps 737 mmHg 45%
    18:00 +21°C° 0 mm 3 mps 737 mmHg 55%
    19:00 +18°C° 0 mm 2 mps 738 mmHg 65%
    20:00 +16°C° 0 mm 1 mps 738 mmHg 73%
    21:00 +14°C° 0 mm 1 mps 738 mmHg 82%
    22:00 +12°C° 0 mm 1 mps 738 mmHg 90%
    23:00 +12°C° 0 mm 1 mps 738 mmHg 90%

    Day after tomorrow, 21 January, Tuesday

    Time Temperature Precipitation Wind Pressure Humidity
    00:00 +11°C° 0 mm 1 mps 738 mmHg 91%
    01:00 +11°C° 0 mm 1 mps 738 mmHg 91%
    02:00 +10°C° 0 mm 1 mps 738 mmHg 92%
    03:00 +10°C° 0 mm 1 mps 737 mmHg 94%
    04:00 +9°C° 0 mm 1 mps 737 mmHg 95%
    05:00 +11°C° 0 mm 1 mps 737 mmHg 88%
    06:00 +13°C° 0 mm 1 mps 738 mmHg 81%
    07:00 +15°C° 0 mm 2 mps 738 mmHg 74%
    08:00 +18°C° 0 mm 2 mps 738 mmHg 64%
    09:00 +21°C° 0 mm 3 mps 738 mmHg 53%
    10:00 +25°C° 0 mm 3 mps 737 mmHg 42%
    11:00 +27°C° 0 mm 3 mps 737 mmHg 38%
    12:00 +30°C° 0 mm 4 mps 737 mmHg 34%
    13:00 +33°C° 0 mm 4 mps 737 mmHg 29%
    14:00 +33°C° 0 mm 4 mps 736 mmHg 30%
    15:00 +33°C° 0 mm 5 mps 736 mmHg 31%
    16:00 +33°C° 0 mm 5 mps 736 mmHg 31%
    17:00 +28°C° 0 mm 4 mps 736 mmHg 39%
    18:00 +25°C° 0 mm 3 mps 736 mmHg 47%
    19:00 +21°C° 0 mm 2 mps 737 mmHg 56%
    20:00 +19°C° 0 mm 2 mps 737 mmHg 65%
    21:00 +16°C° 0 mm 1 mps 737 mmHg 74%
    22:00 +14°C° 0 mm 1 mps 737 mmHg 83%
    23:00 +13°C° 0 mm 1 mps 737 mmHg 85%

    22 January, Wednesday

    Time Temperature Precipitation Wind Pressure Humidity
    00:00 +13°C° 0 mm 1 mps 737 mmHg 87%
    01:00 +12°C° 0 mm 1 mps 736 mmHg 88%
    02:00 +12°C° 0 mm 1 mps 736 mmHg 90%
    03:00 +11°C° 0 mm 1 mps 736 mmHg 91%
    04:00 +11°C° 0 mm 1 mps 736 mmHg 93%
    05:00 +12°C° 0 mm 1 mps 736 mmHg 85%
    06:00 +14°C° 0 mm 1 mps 736 mmHg 76%
    07:00 +16°C° 0 mm 1 mps 736 mmHg 68%
    08:00 +19°C° 0 mm 2 mps 736 mmHg 60%
    09:00 +23°C° 0 mm 2 mps 736 mmHg 51%
    10:00 +26°C° 0 mm 3 mps 736 mmHg 43%
    11:00 +28°C° 0 mm 3 mps 736 mmHg 38%
    12:00 +30°C° 0 mm 4 mps 736 mmHg 33%
    13:00 +33°C° 0 mm 4 mps 736 mmHg 28%
    14:00 +32°C° 0 mm 4 mps 736 mmHg 30%
    15:00 +32°C° 0 mm 4 mps 735 mmHg 32%
    16:00 +30°C° 0 mm 5 mps 735 mmHg 33%
    17:00 +27°C° 0 mm 4 mps 736 mmHg 44%
    18:00 +24°C° 0 mm 3 mps 736 mmHg 54%
    19:00 +19°C° 0 mm 2 mps 736 mmHg 64%
    20:00 +17°C° 0 mm 2 mps 736 mmHg 74%
    21:00 +15°C° 0 mm 1 mps 736 mmHg 83%
    22:00 +13°C° 0 mm 1 mps 737 mmHg 93%
    23:00 +13°C° 0 mm 1 mps 737 mmHg 93%

    23 January, Thursday

    Time Temperature Precipitation Wind Pressure Humidity
    00:00 +12°C° 0 mm 1 mps 737 mmHg 94%
    01:00 +11°C° 0 mm 0 mps 737 mmHg 95%
    02:00 +10°C° 0 mm 0 mps 737 mmHg 95%
    03:00 +10°C° 0 mm 0 mps 737 mmHg 95%
    04:00 +10°C° 0 mm 0 mps 737 mmHg 95%
    05:00 +12°C° 0 mm 1 mps 738 mmHg 89%
    06:00 +14°C° 0 mm 1 mps 738 mmHg 82%
    07:00 +16°C° 0 mm 1 mps 739 mmHg 75%
    08:00 +19°C° 0 mm 2 mps 739 mmHg 63%
    09:00 +23°C° 0 mm 2 mps 739 mmHg 51%
    10:00 +26°C° 0 mm 3 mps 739 mmHg 38%
    11:00 +27°C° 0 mm 3 mps 739 mmHg 34%
    12:00 +29°C° 0 mm 4 mps 739 mmHg 29%
    13:00 +32°C° 0 mm 4 mps 739 mmHg 24%
    14:00 +30°C° 0 mm 4 mps 739 mmHg 26%
    15:00 +29°C° 0 mm 5 mps 739 mmHg 27%
    16:00 +28°C° 0 mm 5 mps 739 mmHg 28%
    17:00 +25°C° 0 mm 4 mps 739 mmHg 40%
    18:00 +21°C° 0 mm 3 mps 740 mmHg 52%
    19:00 +17°C° 0 mm 2 mps 740 mmHg 64%
    20:00 +16°C° 0 mm 2 mps 740 mmHg 74%
    21:00 +14°C° 0 mm 1 mps 740 mmHg 85%
    22:00 +12°C° 0 mm 1 mps 740 mmHg 95%
    23:00 +12°C° 0 mm 1 mps 740 mmHg 95%

    24 January, Friday

    Time Temperature Precipitation Wind Pressure Humidity
    00:00 +12°C° 0 mm 1 mps 740 mmHg 96%
    01:00 +11°C° 0 mm 0 mps 740 mmHg 96%
    02:00 +12°C° 0 mm 1 mps 740 mmHg 96%
    03:00 +13°C° 0 mm 1 mps 740 mmHg 95%
    04:00 +13°C° 0 mm 1 mps 740 mmHg 94%
    05:00 +14°C° 0 mm 1 mps 740 mmHg 91%
    06:00 +14°C° 0 mm 2 mps 740 mmHg 87%
    07:00 +15°C° 0 mm 2 mps 740 mmHg 84%
    08:00 +18°C° 0 mm 2 mps 740 mmHg 71%
    09:00 +21°C° 0 mm 2 mps 740 mmHg 58%
    10:00 +25°C° 0 mm 3 mps 740 mmHg 45%
    11:00 +27°C° 0 mm 3 mps 740 mmHg 40%
    12:00 +28°C° 0 mm 4 mps 740 mmHg 35%
    13:00 +30°C° 0 mm 4 mps 740 mmHg 29%
    14:00 +29°C° 0 mm 5 mps 740 mmHg 31%
    15:00 +28°C° 0 mm 5 mps 740 mmHg 33%
    16:00 +27°C° 0 mm 5 mps 740 mmHg 34%
    17:00 +25°C° 0 mm 4 mps 740 mmHg 40%
    18:00 +21°C° 0 mm 4 mps 740 mmHg 45%
    19:00 +18°C° 0 mm 3 mps 741 mmHg 51%
    20:00 +16°C° 0 mm 2 mps 741 mmHg 62%
    21:00 +14°C° 0 mm 1 mps 741 mmHg 74%
    22:00 +13°C° 0 mm 1 mps 741 mmHg 85%
    23:00 +12°C° 0 mm 1 mps 741 mmHg 89%
    Show more